Flag Weather past 2 weeks in Tórshavn, Faroe Islands, Faroe Islands

Now
45 °F

Passing clouds.


Feels Like: 39 °F
Forecast: 45 / 49 °F
Wind: 10 mph from South

Location: Soervaag / Vagar

Current Time: Nov 24, 2014 at 9:20:48 AM

Latest Report: Nov 24, 2014 at 8:50 AM


Visibility: N/A

Pressure: 29.89 "Hg

Humidity: 81%

Dew point: 39 °F

Location of TórshavnLocation

Historic Weather in Tórshavn — Graph

°F

Tórshavn temperature yesterday

Maximum temperature yesterday: 46 °F (at 12:50 AM)
Minimum temperature yesterday: 37 °F (at 9:20 PM)
Average temperature yesterday: 43 °F

Past Weeks' High & Low Weather Summary

 TemperatureHumidityPressure
High52 °F (Nov 14, 5:20 PM)100% (Nov 12, 7:20 PM)30.30 "Hg (Nov 12, 7:20 PM)
Low37 °F (Nov 9, 10:50 PM)71% (Nov 10, 11:50 PM)29.42 "Hg (Nov 12, 8:50 PM)
Average47 °F90%29.79 "Hg
* Reported Nov 9 8:20 AM — Nov 24 8:20 AM, Tórshavn, Weather by CustomWeather, © 2014

Note: Actual official high and low records may vary slightly from our data, if they occured in-between our weather recording intervals... More about our weather records

Advertising

Tórshavn weather history for previous 24 hours

 ConditionsComfort  
Time TempWeatherWind HumidityBarometerVisibility
8:20 AM
Nov 24
43 °FPassing clouds.8 mph87%29.89 "HgN/A
7:50 AM45 °FPassing clouds.8 mph76%29.89 "HgN/A
7:20 AM45 °FOvercast.8 mph81%29.89 "HgN/A
6:50 AM45 °FPassing clouds.9 mph87%29.89 "HgN/A
6:20 AM45 °FPassing clouds.9 mph87%29.89 "HgN/A
5:50 AM45 °FSprinkles. Low clouds.9 mph93%29.89 "Hg4 mi
5:20 AM45 °FFog.8 mph93%29.86 "Hg3 mi
4:50 AM43 °FPassing clouds.2 mph93%29.86 "HgN/A
4:20 AM45 °FPassing clouds.5 mph87%29.86 "HgN/A
3:50 AM45 °FPassing clouds.3 mph93%29.86 "HgN/A
3:20 AM45 °FPassing clouds.7 mph93%29.86 "Hg3 mi
2:50 AM45 °FPassing clouds.6 mph87%29.86 "HgN/A
2:20 AM45 °FPassing clouds.6 mph93%29.86 "HgN/A
1:50 AM39 °FPassing clouds.No wind93%29.83 "HgN/A
1:20 AM43 °FSprinkles. Passing clouds.1 mph93%29.83 "HgN/A
12:50 AM43 °FSprinkles. Passing clouds.1 mph93%29.83 "HgN/A
12:20 AM43 °FPassing clouds.1 mph93%29.83 "HgN/A
11:50 PM
Nov 23
43 °FPassing clouds.No wind87%29.83 "HgN/A
11:20 PM41 °FPassing clouds.1 mph93%29.83 "HgN/A
10:50 PM39 °FPassing clouds.1 mph93%29.83 "HgN/A
10:20 PM39 °FPassing clouds.1 mph93%29.80 "HgN/A
9:20 PM37 °FPassing clouds.No wind93%29.80 "HgN/A
8:20 PM39 °FPassing clouds.No wind93%29.80 "HgN/A
7:50 PM39 °FPassing clouds.No wind93%29.80 "HgN/A
7:20 PM39 °FPassing clouds.No wind93%29.80 "HgN/A
6:50 PM39 °FPassing clouds.1 mph93%29.80 "HgN/A
6:20 PM39 °FPassing clouds.No wind93%29.80 "HgN/A
5:50 PM39 °FPassing clouds.2 mph93%29.77 "HgN/A
5:20 PM39 °FPassing clouds.1 mph93%29.77 "HgN/A
4:50 PM39 °FPassing clouds.1 mph93%29.77 "HgN/A
4:20 PM39 °FPassing clouds.2 mph93%29.74 "HgN/A
3:50 PM41 °FPartly sunny.1 mph93%29.74 "HgN/A
3:20 PM41 °FScattered clouds.2 mph93%29.74 "HgN/A
2:50 PM43 °FPassing clouds.No wind87%29.74 "HgN/A
2:20 PM45 °FPartly sunny.1 mph87%29.74 "HgN/A
1:50 PM45 °FPartly sunny.3 mph87%29.74 "HgN/A
1:20 PM45 °FPartly sunny.7 mph87%29.74 "HgN/A
12:50 PM45 °FPartly sunny.7 mph93%29.74 "HgN/A
12:20 PM45 °FScattered clouds.7 mph93%29.74 "HgN/A
11:50 AM45 °FPartly sunny.10 mph87%29.74 "HgN/A
11:20 AM45 °FPassing clouds.8 mph87%29.74 "HgN/A
10:50 AM45 °FQuite cool.9 mph87%29.74 "HgN/A
10:20 AM43 °FPassing clouds.8 mph87%29.74 "HgN/A
9:50 AM45 °FPassing clouds.9 mph87%29.74 "HgN/A
9:20 AM45 °FPassing clouds.7 mph87%29.74 "HgN/A
Weather by CustomWeather, © 2014

See weather overviewHow to use our weather pages